Missoula, MT

4:39 PM MST on December 18, 2017 (GMT -0700)
Missoula International

Weather History for KMSO - September, 2012

Change the Weather History Date:

Saturday, September 8, 2012

  Actual Average Record
Temperature  
Mean Temperature 64 °F 60 °F  
Max Temperature 87 °F 77 °F 92 °F (1967)
Min Temperature 41 °F 44 °F 30 °F (1960)
Degree Days  
Heating Degree Days 1 5  
Month to date heating degree days 30 36  
Since 1 July heating degree days 61 120  
Cooling Degree Days 0 1  
Month to date cooling degree days 0 9  
Year to date cooling degree days 415 326  
Growing Degree Days 14 (Base 50)    
Moisture  
Dew Point 34 °F    
Average Humidity 44    
Maximum Humidity 76    
Minimum Humidity 12    
Precipitation  
Precipitation 0.00 in 0.04 in 1.05 in (1986)
Month to date precipitation T 0.34  
Year to date precipitation 10.51 10.37  
Snow  
Snow 0.00 in - - ()
Month to date snowfall 0.0  
Year to date snowfall 29.2  
Since 1 July snowfall 0.0  
Snow Depth 0.00 in    
Sea Level Pressure  
Sea Level Pressure 30.16 in    
Wind  
Wind Speed 2 mph (SSE)    
Max Wind Speed 14 mph    
Max Gust Speed 14 mph    
Visibility 10 miles    
Events      
T = Trace of Precipitation, MM = Missing Value Source: NWS Daily Summary

Daily Weather History Graph

Daily Weather History Graph

Search for Another Location

Airport or City:

Trip Planner

Search our weather history database for the weather conditions in past years. The results will help you decide how hot, cold, wet, or windy it might be!

Date:

Astronomy

Sep. 08, 2012 Rise Set
Actual Time 7:05 AM MDT 8:01 PM MDT
Civil Twilight 6:34 AM MDT 8:31 PM MDT
Nautical Twilight 5:57 AM MDT 9:08 PM MDT
Astronomical Twilight 5:18 AM MDT 9:47 PM MDT
Moon No Moon Rise 3:18 PM MDT (9/8)
Length of Visible Light 13h 57m
Length of Day
12h 55m
Waning Gibbous, 48% of the Moon is Illuminated
Sep 8
Waning Gibbous
Sep 15
New
Sep 22
First Quarter
Sep 29
Full
Oct 8
Last Quarter

Hourly Weather History & Observations

Time (MDT) Temp. Dew Point Humidity Pressure Visibility Wind Dir Wind Speed Gust Speed Precip Events Conditions
12:53 AM 55.0 °F 34.0 °F 45% 30.27 in 10.0 mi Calm Calm - N/A   Clear
1:53 AM 51.1 °F 34.0 °F 52% 30.27 in 10.0 mi Calm Calm - N/A   Clear
2:53 AM 52.0 °F 34.0 °F 50% 30.27 in 10.0 mi East 6.9 mph - N/A   Clear
3:53 AM 51.1 °F 36.0 °F 56% 30.26 in 10.0 mi South 8.1 mph - N/A   Clear
4:53 AM 48.9 °F 37.9 °F 66% 30.27 in 10.0 mi Calm Calm - N/A   Clear
5:53 AM 45.0 °F 34.0 °F 65% 30.27 in 10.0 mi Calm Calm - N/A   Clear
6:53 AM 42.1 °F 34.0 °F 73% 30.29 in 10.0 mi Calm Calm - N/A   Clear
7:53 AM 43.0 °F 35.1 °F 74% 30.30 in 10.0 mi Calm Calm - N/A   Clear
8:53 AM 48.9 °F 37.0 °F 64% 30.30 in 10.0 mi Calm Calm - N/A   Clear
9:53 AM 53.1 °F 37.0 °F 55% 30.29 in 10.0 mi Calm Calm - N/A   Clear
10:53 AM 57.9 °F 36.0 °F 44% 30.26 in 10.0 mi Calm Calm - N/A   Clear
11:53 AM 64.9 °F 34.0 °F 32% 30.23 in 10.0 mi Calm Calm - N/A   Clear
12:53 PM 70.0 °F 35.1 °F 28% 30.19 in 10.0 mi West 3.5 mph - N/A   Clear
1:53 PM 75.9 °F 35.1 °F 23% 30.16 in 10.0 mi West 5.8 mph - N/A   Clear
2:53 PM 80.1 °F 35.1 °F 20% 30.11 in 9.0 mi Calm Calm - N/A   Clear
3:53 PM 82.9 °F 34.0 °F 17% 30.07 in 7.0 mi Calm Calm - N/A   Clear
4:53 PM 86.0 °F 28.9 °F 13% 30.04 in 9.0 mi Calm Calm - N/A   Clear
5:53 PM 84.9 °F 30.9 °F 14% 30.03 in 9.0 mi South 3.5 mph - N/A   Clear
6:53 PM 82.9 °F 32.0 °F 16% 30.03 in 10.0 mi South 3.5 mph - N/A   Clear
7:53 PM 79.0 °F 35.1 °F 20% 30.02 in 9.0 mi Calm Calm - N/A   Clear
8:53 PM 73.0 °F 30.0 °F 20% 30.03 in 10.0 mi NNE 4.6 mph - N/A   Clear
9:53 PM 66.0 °F 33.1 °F 29% 30.04 in 10.0 mi Calm Calm - N/A   Clear
10:53 PM 64.9 °F 32.0 °F 29% 30.03 in 10.0 mi ESE 3.5 mph - N/A   Clear
11:53 PM 60.1 °F 33.1 °F 36% 30.01 in 10.0 mi East 4.6 mph - N/A   Clear